Location: Recife
(8.0585°S, 34.8848°W)
Time: 13:14:35
(UTC-03:00)

Vanguard 2 - Pass Details

Date: 19 April 2026
Orbit: 553 x 2895 km, 32.9° (Epoch: 13 May)

Event Time Altitude Azimuth Distance (km) Brightness Sun altitude
Rises 17:47:13 0° 315° (NW) 3,965 12.2 -8.5°
Reaches altitude 10° 17:49:32 10° 318° (NW) 3,248 11.6 -9.1°
Maximum altitude 17:58:00 65° 39° (NE) 1,930 9.4 -11.2°
Enters shadow 18:10:17 14° 116° (ESE) 4,711 10.9 -14.2°
